SPIRONE

Last updated on Wed Dec 31 2025 00:02:07 GMT+0000 (Coordinated Universal Time)

1 66657U 25274H 25364.30953011 .00004359 00000+0 42885-3 0 9992 2 66657 97.7399 291.2154 0011263 209.9756 150.0819 14.92569564 5023
UTC large
Height (km)
Speed (km/s)
/
Latitude / Longitude
Inclination (degrees)
Orbital Period (minutes)
Azimuth
Elevation
Range (km)
Doppler Factor

Next 0 passes for location: London (51.5072 / 0.1276)

Sorry there are no passes over London.